Other Public Products
Issued by NWS Grand Forks, ND

Home | Current Version | Previous Version | Graphics & Text | Print | Product List | Glossary On
Versions: 1 2 3 4 5 6 7 8 9 10 11 12 13 14 15 16 17 18 19 20 21 22 23 24 25 26 27 28 29 30 31 32 33 34 35 36 37 38 39 40 41 42 43 44 45 46 47 48 49 50
000
FPUS83 KFGF 150210
OPUFGF
PRAIRIE TO PINES WEATHER ROUNDUP
NATIONAL WEATHER SERVICE EASTERN NORTH DAKOTA/GRAND FORKS ND
800 PM CST THU DEC 14 2017

 **SATELLITE DATA USED TO AUGMENT SKY COVER AT AUTOMATED STATIONS**
 *****  WEATHER ACROSS EASTERN NORTH DAKOTA  *****

CITY           SKY/WX    TMP DP  RH WIND       PRES   REMARKS
GRAND FORKS    FLURRIES  20  17  88 E3        30.04R
GRND FORKS AFB FLURRIES  19  17  92 S3        30.02F
GRND FORKS NWS   N/A     19 N/A N/A E3          N/A
BUXTON         NOT AVBL
DEVILS LAKE    FLURRIES  29  28  96 W13       29.98F WCI  19
FARGO          CLOUDY    23  21  92 CALM      30.02F
WAHPETON ARPT  CLOUDY    25  21  86 CALM      30.05F
$$

 *****  WEATHER ACROSS CENTRAL AND WESTERN NORTH DAKOTA  *****

CITY           SKY/WX    TMP DP  RH WIND       PRES   REMARKS
JAMESTOWN      CLOUDY    31  29  92 W10       29.99F WCI  22
BISMARCK       CLOUDY    35  25  66 NW6       30.07F
MINOT          CLOUDY    33  23  66 W14       30.02F WCI  23
MINOT AFB      CLOUDY    32  23  69 NW13      30.01S WCI  22
GARRISON         N/A     34  24  67 NW15      30.03F WCI  24
WILLISTON      FAIR      27  22  81 W6        30.07F WCI  20
DICKINSON      FAIR      24  20  84 W9        30.05F WCI  14
HETTINGER      FAIR      18  16  92 W6        30.11S WCI  10
$$

 *****  OTHER OBSERVATIONS NORTHEAST NORTH DAKOTA  *****

CITY           SKY/WX    TMP DP  RH WIND       PRES   REMARKS
WALHALLA       FAIR      21  21 100 N7        30.03S WCI  13
LANGDON        CLOUDY    21  21 100 NE9       29.99S WCI  11
CAVALIER       CLOUDY    21  19  93 N9        30.03S WCI  11
GRAFTON        CLOUDY    19  19 100 CALM      30.05F
CANDO          CLOUDY    30  30 100 N13G18    30.00S WCI  20
FORT TOTTEN      N/A     30  28  93 NW5       29.95S
ROLLA          CLOUDY    27  25  93 N15       29.99S WCI  15
RUGBY          CLOUDY    30  28  93 NW14G20   29.99F WCI  20
 ***** THE ABOVE OBSERVATIONS ARE NON NWS ARE NOT QUALITY
        CONTROLLED AND MAY MIS-REPORT RAIN FOR SNOW...
$$

 *****  OTHER OBSERVATIONS SOUTHEAST NORTH DAKOTA *****

CITY           SKY/WX    TMP DP  RH WIND       PRES   REMARKS
COOPERSTOWN      N/A     28  27  93 W8        29.98F WCI  20
VALLEY CITY    FLURRIES  28  28 100 W12       30.01F WCI  18
OAKES            N/A     28  28 100 SW8       30.04F WCI  20
GWINNER          N/A     28  27  93 W7        30.03F WCI  21
SHEYENNE NWR     N/A     28  26  94 W6        29.95S WCI  22
BUFFALO        NOT AVBL
WYNDMERE       NOT AVBL
 ***** THE ABOVE OBSERVATIONS ARE NON NWS ARE NOT QUALITY
       CONTROLLED AND MAY MIS-REPORT RAIN FOR SNOW...
$$

  *****  WEATHER ACROSS NORTHERN MINNESOTA  *****

CITY           SKY/WX    TMP DP  RH WIND       PRES   REMARKS
FLAG ISLAND    CLOUDY    10   7  85 NW15      29.96S WCI  -6
WARROAD        LGT SNOW  12   9  85 NW14G21   29.98S WCI  -3
ROSEAU         FLURRIES  16  10  79 NW17      29.99S WCI   0
HALLOCK        CLOUDY    19  18  93 NW9       30.02S WCI   9
THF RVR FALLS  FLURRIES  15  12  88 W6        30.01S WCI   6
HALSTAD        NOT AVBL
FOSSTON        FLURRIES  12  10  92 CALM      30.00F
BAUDETTE       FLURRIES  12   8  84 NW12      29.94F WCI  -2
WASKISH        LGT SNOW  12  10  92 W7        29.97S WCI   2
CROOKSTON      CLOUDY    18  16  93 CALM      30.04S
$$
  *****  WEATHER ACROSS CENTRAL AND WEST MINNESOTA  *****

CITY           SKY/WX    TMP DP  RH WIND       PRES   REMARKS
BEMIDJI        FLURRIES  13   9  86 NW8       29.97S WCI   1
PARK RAPIDS    CLOUDY    16  11  80 NW13      29.98S WCI   2
WADENA         FLURRIES  18  14  86 NW7       29.99F WCI   8
DETROIT LAKES  MOCLDY    19  16  86 N3        30.01S
MOORHEAD       FLURRIES  21  19  93 CALM      30.04S
FERGUS FALLS   FLURRIES  21  19  93 W5        30.06S WCI  15
ELBOW LAKE     CLOUDY    22  20  93 NW7       30.03F WCI  13
MORRIS MN      FLURRIES  25  19  80 W6        30.04S WCI  18
STAPLES        FLURRIES  18  12  79 NW8       29.99S WCI   7
WHEATON        CLOUDY    25  19  80 SW5       30.07S WCI  19
$$
  *****  WEATHER ELSEWHERE ACROSS MINNESOTA  *****

CITY           SKY/WX    TMP DP  RH WIND       PRES   REMARKS
DULUTH         FLURRIES  14   8  77 NW12      29.89F WCI   0
INTRNTL FALLS  LGT SNOW  12   6  77 W8        29.93R WCI   0
ELY            LGT SNOW  10   9  92 W9        29.88F WCI  -2
CLOQUET        FLURRIES  16   9  73 W8        29.91F WCI   5
BRAINERD       CLOUDY    19  12  74 NW9G18    29.97F WCI   8
HIBBING        CLOUDY    12   6  77 NW10G16   29.91F WCI  -1
ALEXANDRIA     LGT SNOW  21  17  84 W9        30.01S FOG     WCI  11
SAINT CLOUD    CLOUDY    21  15  78 NW17      30.00F WCI   7
MINNEAPOLIS    CLOUDY    23  17  78 NW10      30.02F WCI  12
$$

  *****  WEATHER ACROSS SOUTH DAKOTA  *****

CITY           SKY/WX    TMP DP  RH WIND       PRES   REMARKS
SIOUX FALLS    MOCLDY    29  25  85 NW10      30.10S WCI  20
BROOKINGS      FLURRIES  26  21  81 NW7       30.07F WCI  18
WATERTOWN      CLOUDY    26  23  88 W8        30.04F WCI  18
HURON          CLOUDY    28  26  92 CALM      30.12F
SISSETON         N/A     29  24  82 NW7       30.04F WCI  22
ABERDEEN       CLOUDY    27  25  92 SW6       30.08F WCI  20
MITCHELL       CLOUDY    29  26  89 CALM      30.14F
PIERRE         CLOUDY    33  26  75 W8        30.14F
MOBRIDGE       CLOUDY    35  25  66 NW12      30.08S
RAPID CITY     FAIR      22  14  71 W5        30.16F WCI  16
$$

  *****  SOME WEATHER IN NEARBY STATES *****

CITY           SKY/WX    TMP DP  RH WIND       PRES   REMARKS
GLASGOW MT     FAIR      25  20  81 W6        30.07F WCI  18
GREAT FALLS MT FAIR      36  19  50 SW21      30.09F
CHEYENNE WY    FAIR      23  16  74 NW9       30.17F WCI  13
SCOTTSBLUFF NE FAIR      22  17  81 W7        30.22F WCI  13
OMAHA NE       CLOUDY    36  25  64 NW5       30.12R
DES MOINES IA  CLOUDY    31  21  66 W5        30.09S
DAVENPORT IA   CLOUDY    25  16  68 W12       30.11S WCI  14
CHICAGO IL     FAIR      21  11  65 SW3       30.06F
EAU CLAIRE WI  LGT SNOW  21  16  81 W7        29.98S WCI  12
LA CROSSE WI   CLOUDY    26  18  71 W6        30.01F WCI  19
$$

  *****  SOME NATIONAL WEATHER *****

CITY           SKY/WX    TMP DP  RH WIND       PRES   REMARKS
LA GUARDIA NY  FAIR      27   9  46 NW16      30.07R WCI  15
RALEIGH NC     FAIR      42  27  55 NE7       30.01R
ATLANTA GA     MOCLDY    48  37  65 W3        29.99R
NEW ORLEANS LA CLOUDY    56  50  80 CALM      30.02S
OKLAHOMA CITY  FAIR      36  25  64 S5        30.16S
ALBUQUERQUE NM FAIR      39  15  37 E12       30.21R
SALT LAKE CITY FAIR      33  26  75 CALM      30.42R
LOS ANGELES CA FAIR      62  56  80 W7        30.02R
BOISE ID       CLOUDY    27  23  85 SE7       30.48F WCI  19
SEATTLE WA     MOCLDY    42  36  79 NW5       30.27S
$$

*** WEATHER ACROSS MANITOBA...SASKATCHEWAN AND ONTARIO ***
                ***ONTARIO***

CITY           SKY/WX    TMP DP  RH WIND       PRES   REMARKS
GERALDTON      PTCLDY     1  -2  85 SW6       29.81S WCI -10
THUNDER BAY    LGT SNOW  16  12  86 W6        29.88S WCI   7
SIOUX LOOKOUT  FLURRIES   9   5  85 NW6       29.84S WCI  -1
TORONTO        PTCLDY    12   7  79 SW8       30.01R WCI   1
BIG TROUT LK   FLURRIES  -9 -15  77 NW12G17   29.91S WCI -29
PICKLE LAKE    FLURRIES   3   0  85 NW3       29.80S
DRYDEN         LGT SNOW   9   7  92 W10       29.85F WCI  -6
KENORA         FLURRIES   9   5  85 NW6       29.91S WCI  -1
$$
                *** MANITOBA***

CITY           SKY/WX    TMP DP  RH WIND       PRES   REMARKS
BRANDON        CLOUDY    25  18  74 NW10      30.01S WCI  15
DAUPHIN        CLOUDY    18  16  93 SE3       30.05S
ISLAND LAKE    NOT AVBL
PILOT MOUND      N/A     19  16  86 N8          N/A  WCI   9
THE PAS        FLURRIES   9   1  72 SE6       30.04F WCI  -1
THOMPSON       CLEAR    -15 -18  84 NW2       30.06F
WINNIPEG       MOCLDY    10   7  85 NW7       30.03S WCI   0
LYNN LAKE      CLOUDY     0  -2  92 W3        29.99F
CHURCHILL      LGT SNOW  -8 -11  84 NW14      30.02S DRFTSNOWWCI -28
$$
                ***SASKATCHEWAN***

CITY           SKY/WX    TMP DP  RH WIND       PRES   REMARKS
ESTEVAN        CLOUDY    30  23  74 W12G17    30.03F WCI  21
KINDERSLEY     CLOUDY    27  25  93 SW9       29.94F WCI  17
LLOYDMINSTER   CLOUDY    34  28  80 SW16      29.83F WCI  23
PRINCE ALBERT  CLOUDY    27  21  80 S5        29.95F WCI  21
REGINA         PTCLDY    23  21  93 W8        30.01F WCI  14
YORKTON        CLOUDY    25  23  93 NW2       29.99F
N. BATTLEFORD  CLOUDY    28  25  86 SW6       29.92F WC



USA.gov is the U.S. government's official web portal to all federal, state and local government web resources and services.